423  
ASUS44 KMAF 210110  
RWRMAF  
MIDLAND AREA WEATHER ROUNDUP  
NATIONAL WEATHER SERVICE MIDLAND TX  
700 PM CST THU FEB 20 2020  
   
..IN SOUTHWEST TEXAS AND SOUTHEAST NEW MEXICO
 
 
 
CITY SKY/WX TMP DP RH WIND PRES REMARKS
 
ALPINE CLOUDY 33 33 99 NE14 30.58R WCI 24  
ANDREWS CLOUDY 40 25 54 E12 30.58S WCI 33  
ARTESIA CLOUDY 34 32 93 NW10 30.62 WCI 26  
BIG SPRING CLEAR 39 28 64 NE13 30.61R WCI 31  
CARLSBAD CLOUDY 35 29 78 NW10 30.59R WCI 27  
DRYDEN N/A 47 33 58 N10 30.50R  
FORT STOCKTON CLOUDY 41 32 70 NE13 30.57R WCI 34  
GUAD PASS CLOUDY 27 26 96 NE32 30.46R FOG WCI 10  
HOBBS CLOUDY 37 23 56 NE9 30.57R WCI 31  
LAMESA NOT AVBL  
MARFA CLOUDY 34 31 88 NE16G23 30.50R WCI 24  
MIDLAND AIRPK MOCLDY 38 30 71 E8 30.59R WCI 32  
MIDLAND INTL CLEAR 39 29 67 E8 30.58R WCI 33  
ODESSA CLOUDY 38 28 67 E9 30.58R WCI 31  
PECOS CLOUDY 45 31 57 NE6 30.58R  
PRESIDIO FAIR 50 36 57 N15G24 30.46R  
SEMINOLE CLOUDY 41 24 51 E12 30.61S WCI 34  
SNYDER CLEAR 38 26 63 NE10 30.61R WCI 31  
WINK CLOUDY 43 27 53 NE8 30.57R WCI 38  

   
..OTHER STATIONS IN TEXAS
 
 
 
CITY SKY/WX TMP DP RH WIND PRES REMARKS
 
ABILENE CLOUDY 42 29 59 N14G22 30.61R WCI 35  
AMARILLO PTCLDY 22 16 78 NE8 30.62R WCI 12  
AUSTIN MOCLDY 50 39 66 N15 30.50R  
BROWNSVILLE LGT RAIN 50 48 93 NW15 30.38R  
CORPUS CHRISTI LGT RAIN 48 46 93 N17 30.43R FOG  
DALLAS FTW PTCLDY 43 31 62 N21G29 30.58R WCI 34  
DEL RIO CLOUDY 55 38 52 NW6 30.52R  
EL PASO PTCLDY 46 30 53 E18 30.40R WCI 39  
HOUSTON INT CLOUDY 50 41 71 N20 30.45R  
LUBBOCK PTCLDY 35 22 58 E13 30.59R WCI 26  
SAN ANGELO PTCLDY 43 32 65 N16G24 30.58R WCI 35  
SAN ANTONIO MOCLDY 49 39 68 N12G25 30.49R  
WACO PTCLDY 49 34 56 N16G29 30.54R  
WICHITA FALLS CLEAR 27 16 63 N8 30.72R WCI 19  

   
..OTHER LOCATIONS IN NEW MEXICO
 
 
 
CITY SKY/WX TMP DP RH WIND PRES REMARKS
 
ALAMOGORDO CLEAR 48 28 46 SW6 30.40  
ALBUQUERQUE PTCLDY 37 23 56 E17G28 30.40R WCI 27  
CANNON AFB CLOUDY 33 24 70 E8 30.58 WCI 26  
CLOVIS CLOUDY 31 23 72 NE8 30.59R WCI 23  
HOLLOMAN AFB CLOUDY 48 28 47 S16 30.40  
ROSWELL CLOUDY 35 26 69 N5 30.59R WCI 31  
RUIDOSO CLOUDY 25 23 93 SE7 30.50 FOG WCI 17  
SANTA FE CLEAR 31 22 69 SE16 30.44R WCI 20  
TRUTH OR CONSE CLEAR 51 29 42 NE14 30.35R  
TUCUMCARI CLEAR 30 18 60 S7 30.56R WCI 23  

 
 
 
CLICK HERE TO GO TO PREVIOUS BULLETINS.

The Nexlab TX Page
The Nexlab NM Page Main Text Page